Flag for Germany Weather past 2 weeks in Kaiserslautern, Rhineland-Palatinate, Germany

Now
48 °F

Clear.


Feels Like: 48 °F
Forecast: 54 / 88 °F
Wind: No wind

Location: Ramstein

Current Time: Aug 2, 2015 at 5:24:37 AM

Latest Report: Aug 2, 2015 at 4:58 AM


Visibility: N/A

Pressure: 30.06 "Hg

Humidity: 100%

Dew point: 48 °F

Location of KaiserslauternLocation

Historic Weather in Kaiserslautern — Graph

°F

Kaiserslautern temperature yesterday

Maximum temperature yesterday: 81 °F (at 4:58 PM)
Minimum temperature yesterday: 51 °F (at 3:58 AM)
Average temperature yesterday: 66 °F

Past Weeks' High & Low Weather Summary

 TemperatureHumidityPressure
High91 °F (Jul 22, 2:58 PM)100% (Jul 18, 3:58 AM)30.13 "Hg (Jul 18, 3:58 AM)
Low39 °F (Jul 26, 5:03 AM)26% (Jul 30, 3:58 PM)29.64 "Hg (Jul 27, 4:58 AM)
Average67 °F66%29.91 "Hg
* Reported Jul 18 3:58 AM — Aug 2 3:58 AM, Kaiserslautern, Weather by CustomWeather, © 2015

Note: Actual official high and low records may vary slightly from our data, if they occured in-between our weather recording intervals... More about our weather records

Advertising

Kaiserslautern weather history for previous 24 hours

 ConditionsComfort  
Time TempWeatherWind HumidityBarometerVisibility
3:58 AM
Sun, Aug 2
51 °FClear.No wind93%30.05 "HgN/A
2:58 AM54 °FClear.No wind84%30.04 "HgN/A
1:58 AM58 °FClear.No wind75%30.04 "HgN/A
12:58 AM61 °FClear.5 mph63%30.03 "HgN/A
11:58 PM
Sat, Aug 1
64 °FClear.5 mph57%30.02 "HgN/A
10:58 PM70 °FPassing clouds.7 mph50%29.99 "HgN/A
9:58 PM62 °FSunny.5 mph64%29.98 "HgN/A
8:58 PM73 °FSunny.No wind40%29.96 "HgN/A
7:58 PM79 °FSunny.5 mph30%29.93 "HgN/A
6:58 PM81 °FSunny.6 mph28%29.93 "HgN/A
5:58 PM81 °FSunny.6 mph28%29.93 "HgN/A
4:58 PM81 °FSunny.1 mph26%29.93 "HgN/A
3:58 PM79 °FSunny.5 mph32%29.93 "HgN/A
2:58 PM77 °FScattered clouds.2 mph36%29.94 "HgN/A
1:58 PM75 °FSunny.9 mph39%29.94 "HgN/A
12:58 PM75 °FSunny.5 mph36%29.94 "HgN/A
11:58 AM72 °FSunny.2 mph39%29.95 "HgN/A
10:58 AM69 °FSunny.1 mph44%29.96 "HgN/A
9:58 AM65 °FSunny.No wind48%29.96 "HgN/A
8:58 AM59 °FSunny.5 mph59%29.95 "HgN/A
7:58 AM56 °FSunny.No wind67%29.95 "HgN/A
6:58 AM54 °FClear.2 mph70%29.93 "HgN/A
5:58 AM54 °FPassing clouds.3 mph77%29.91 "HgN/A
Weather by CustomWeather, © 2015

See weather overviewHow to use our weather pages